Dewpoint
70 70 69 68 69 68 68 67 66 66 64 63 63 61 59 58 56 55 55 52 51 50 49 47 47 45 41 39 41 39 38 37 34 33 36 34 37 33 34 34 35 34 36
69 69 68 69 68 68 67 66 65 63 62 62 60 58 56 55 55 54 51 51 49 48 46 43 41 40 39 37 39 34 36 35 35 33 33 31 35 34 35 33 33 34 34
69 68 68 68 68 67 66 65 63 62 61 58 57 56 56 54 52 51 51 49 46 45 42 41 39 36 35 36 35 34 36 37 34 33 30 31 32 34 34 32 33 33 33
69 68 68 67 66 66 65 63 62 59 57 56 55 54 53 52 50 50 49 47 45 42 39 36 35 34 33 37 36 35 36 35 34 31 30 30 31 32 32 31 31 31 32
68 67 67 67 66 64 62 61 59 56 55 54 52 50 50 51 48 49 48 48 44 40 36 32 31 34 40 40 38 38 38 35 34 30 28 28 28 29 31 31 32 31 32
64 64 66 64 61 60 60 58 56 53 50 47 46 45 47 49 48 48 44 41 39 39 36 33 25 30 33 38 41 42 42 32 29 32 31 31 29 32 32 31 31 30 30
63 62 61 59 59 59 57 55 52 47 46 44 43 43 43 44 42 41 40 34 34 32 28 23 18 23 31 31 35 37 37 39 39 36 33 30 32 33 33 32 31 31 30
61 60 60 58 57 56 53 50 47 46 44 42 39 38 39 39 39 37 35 27 27 29 29 24 22 21 30 32 29 29 29 30 30 32 33 35 33 33 31 33 34 30 32
59 59 57 56 53 51 49 48 48 46 43 39 36 34 34 36 39 36 29 24 20 21 23 25 23 20 32 34 30 28 26 26 33 39 39 37 37 36 36 33 28 30 30
56 55 55 53 50 49 48 47 46 44 39 36 33 33 36 32 38 39 36 32 26 24 23 21 29 23 31 33 24 28 23 25 30 29 29 30 32 31 36 32 30 30 28
54 52 51 50 48 48 46 46 42 38 37 35 32 31 29 29 34 37 37 36 31 30 23 21 21 26 29 31 34 26 27 32 30 28 28 28 29 30 32 32 30 33 28
52 50 49 48 48 46 45 42 39 35 33 30 28 28 28 28 33 35 34 32 31 22 23 24 25 31 32 34 32 33 34 32 28 28 28 29 28 30 32 32 32 32 30
49 48 47 46 45 44 41 37 33 31 28 24 22 23 24 25 28 35 34 34 36 27 24 28 33 33 34 32 34 33 32 28 28 28 28 29 30 32 33 32 30 29 30
46 46 45 43 39 36 34 33 30 26 23 22 25 28 31 30 29 30 30 31 34 29 30 33 34 34 34 32 30 29 26 29 29 28 29 29 31 32 32 32 27 28 28
44 41 37 35 31 31 32 33 31 31 28 32 33 27 23 22 26 31 27 23 25 28 32 28 27 26 25 25 25 28 27 27 28 28 29 29 31 32 32 31 27 27 26
38 33 32 28 27 26 26 26 32 31 31 31 30 24 26 30 32 32 33 34 34 33 28 25 25 25 24 24 24 26 26 27 28 28 28 28 31 32 32 28 26 27 25
36 29 28 27 25 24 22 20 18 27 32 31 31 31 31 31 31 32 33 32 32 29 25 25 24 24 24 25 24 25 25 25 27 28 28 28 30 32 32 27 25 26 24
32 34 30 28 27 24 22 20 17 16 18 21 29 29 30 30 30 31 32 31 26 27 24 23 23 23 24 24 24 24 24 24 25 27 27 27 30 31 32 26 24 26 25
36 34 33 32 30 26 21 20 19 20 21 21 22 26 27 28 29 31 31 27 25 24 22 23 24 24 23 23 22 21 21 23 24 25 26 26 29 30 31 25 25 27 26
36 33 29 26 26 24 21 19 21 23 23 25 25 24 25 29 27 28 28 26 26 25 24 23 23 23 23 21 20 19 20 21 22 24 24 26 28 30 31 25 25 25 24
34 30 32 28 27 23 20 21 23 25 28 29 27 27 27 28 27 26 26 26 25 24 25 23 21 22 21 21 21 19 19 19 22 24 23 25 27 30 30 25 25 25 25
30 28 28 27 26 25 26 28 29 27 26 24 22 22 29 28 28 28 27 26 26 25 25 23 23 23 20 20 21 20 19 19 21 23 22 24 27 29 29 24 24 24 24
32 31 30 30 28 27 24 23 24 24 24 24 24 26 27 28 28 28 29 28 27 26 25 25 24 23 21 22 23 21 20 21 23 23 23 24 26 28 26 24 23 23 24
29 28 28 29 27 25 23 23 23 24 24 26 27 28 28 28 28 28 28 29 28 27 26 25 26 23 22 22 22 21 23 25 26 25 25 25 26 28 23 22 24 23 24
28 31 30 30 29 28 27 27 27 27 27 27 28 28 28 29 29 30 29 29 27 27 26 25 26 23 22 22 21 22 26 28 27 27 26 26 27 25 24 23 23 23 24
33 31 30 30 29 29 29 28 28 28 28 29 29 29 29 28 30 29 28 27 27 27 27 26 26 24 23 24 25 26 27 27 26 27 26 26 25 23 23 22 22 22 24
Lifted_Index
-7 -7 -6 -5 -5 -5 -5 -5 -5 -5 -5 -4 -3 -2 -1 1 2 3 4 4 4 5 8 11 12 13 13 13 14 15 16 16 15 15 17 17 17 17 18 19 18 17 16
-7 -7 -6 -5 -5 -5 -5 -4 -4 -4 -4 -4 -3 -1 0 2 3 4 4 4 5 7 10 12 13 14 14 15 15 16 17 17 16 16 16 17 18 18 18 18 18 17 16
-7 -6 -5 -4 -4 -5 -4 -3 -4 -4 -4 -3 -1 -0 1 3 3 4 4 5 7 10 13 14 15 15 15 16 16 17 17 17 17 16 16 17 18 18 18 18 17 16 16
-7 -6 -5 -4 -4 -4 -4 -3 -3 -4 -3 -2 -0 1 2 3 4 4 6 8 10 13 14 15 16 16 16 17 17 17 17 17 16 16 16 17 17 17 17 17 16 16 15
-6 -5 -5 -5 -4 -3 -3 -3 -3 -3 -2 -1 1 2 3 4 4 6 8 10 12 14 15 16 17 17 17 17 17 17 17 16 16 16 16 16 16 17 17 17 16 15 15
-5 -4 -3 -3 -3 -2 -2 -2 -3 -3 -1 0 2 3 3 4 6 8 10 12 13 14 15 16 17 18 18 18 18 18 17 17 17 17 16 16 17 17 17 16 16 15 14
-3 -2 0 0 -1 -1 -1 -2 -3 -2 -0 1 2 3 3 5 8 10 12 13 14 15 16 17 17 18 18 18 18 18 18 18 18 17 17 17 18 18 17 16 15 15 15
-2 0 2 3 1 -0 -1 -2 -3 -1 0 2 2 3 4 7 11 13 14 15 16 16 17 18 18 18 18 19 18 18 18 18 18 18 18 18 18 17 17 16 15 15 15
-0 1 3 3 1 -0 -2 -2 -1 -0 1 2 3 5 7 11 14 15 16 16 16 17 18 18 18 19 19 19 18 18 18 18 18 18 18 18 17 17 16 15 15 15 14
1 2 2 2 0 -1 -1 -1 0 1 1 2 5 9 12 14 15 16 16 16 16 17 18 19 19 19 19 19 18 18 18 18 18 18 17 17 16 16 15 15 15 15 15
1 1 1 1 -0 -1 -1 0 1 1 1 3 7 12 15 15 15 15 16 16 17 17 18 18 19 19 19 19 19 19 18 18 18 17 16 16 15 15 15 15 15 16 16
1 1 1 0 0 0 0 0 1 1 3 5 9 13 15 15 15 16 16 17 17 18 18 18 18 19 19 18 19 19 18 18 17 16 15 15 15 15 15 15 16 16 16
0 0 1 1 1 1 1 1 3 4 6 9 11 13 15 16 16 17 17 18 18 18 18 18 18 19 18 18 18 18 17 17 16 15 14 15 15 15 15 16 16 17 17
1 1 1 1 2 3 5 6 8 9 11 12 13 14 15 16 17 18 18 18 18 18 18 18 18 18 18 18 17 17 16 16 15 15 15 15 15 15 15 16 16 17 17
1 1 2 3 5 8 10 12 13 14 14 14 15 15 16 17 18 18 18 18 18 18 18 18 18 18 17 17 16 16 16 16 15 15 15 15 15 15 15 16 17 17 17
1 2 3 6 9 11 12 13 14 15 16 16 16 17 17 18 18 18 18 18 18 18 18 18 17 16 16 16 15 15 16 16 16 15 15 15 15 15 16 16 17 17 17
2 4 6 9 11 12 12 12 13 14 16 17 18 18 19 19 19 18 18 18 19 18 18 17 16 16 15 15 15 16 16 16 16 16 15 16 16 16 16 17 17 17 17
5 7 9 10 10 11 12 13 14 15 15 17 19 19 19 18 18 18 18 18 18 17 16 16 15 15 15 15 16 16 16 16 16 16 16 16 16 16 16 17 17 18 18
8 9 9 9 10 12 14 15 16 16 16 17 18 19 18 18 18 18 18 17 17 16 16 15 15 15 15 15 16 16 16 16 16 16 16 16 16 16 17 17 18 18 18
8 9 9 10 12 14 15 16 17 16 17 17 18 18 18 18 18 18 17 17 16 15 15 14 14 15 15 16 16 16 16 16 16 16 16 16 17 17 17 18 18 18 19
10 11 12 14 15 16 17 17 17 17 17 17 18 18 18 18 18 17 16 16 16 15 15 14 14 14 15 16 16 16 16 16 16 16 16 17 17 17 18 18 19 19 19
14 14 15 16 16 16 16 16 17 17 17 17 17 17 17 17 17 16 16 16 16 15 15 14 14 15 15 16 17 16 16 16 17 17 17 17 17 17 18 18 19 19 19
16 16 15 15 15 16 16 16 17 17 17 17 17 17 17 16 16 16 16 16 16 15 15 15 15 15 16 16 17 17 17 17 17 17 17 17 17 18 18 18 19 19 19
15 15 15 15 15 15 16 16 17 17 17 17 17 16 16 16 15 15 15 16 15 15 15 15 15 16 16 16 17 18 18 18 18 18 18 18 18 18 18 18 19 19 19
14 14 14 15 15 16 16 16 17 17 16 16 16 15 15 15 15 15 15 15 15 15 15 15 15 16 16 17 17 18 19 19 19 19 19 18 18 18 18 18 19 19 19
14 14 14 15 15 16 16 16 16 16 16 16 15 15 15 15 15 15 15 15 15 15 15 15 15 16 16 17 18 18 19 19 19 19 19 19 19 18 18 18 18 19 19